STARLINK-36281, 67605

Orbit data source: Space-Track

STARLINK-36281, 67605 is a payload satellite owned by SpaceX/Seattle (US) in SSO that was launched on Thu, 29 Jan 2026 UTC via an FALCON 9 launch vehicle from the Air Force Western Test Range (AFWTR). Payload-class satellites include a variety of spacecraft equipped with specific instruments for various scientific and technological missions. These include communications satellites like Starlink; space stations such as the ISS; scientific satellites like the Hubble; Earth observation satellites from companies like Planet Labs, Umbra, and HawkEye 360; GPS; miniature CubeSats for education and research; and military/defense satellites.

Loading next visibility...
Identifier
67605, 2026-018S
Orbit
SSO
Country
Flag of USUS
Related business
Manufacturer
SpaceX/Seattle
Mission
Operational Commercial Communications
Bus & Motor
STARLINK V2MO, Unknown motor
Mass
575 kg wet, ~530 kg dry
Launch date (UTC)
2026-01-29 (5 months ago)
Launch vehicle
FALCON 9
Launch site
Air Force Western Test Range (AFWTR)
Object type
Payload
Rocket body
Debris
Shape & HBR
Box + 2 Pan, 17.7 m
Radar Cross Section
36.964 m², Large (>1 m²)

Expand to show TLE details & history
Last TLE update: 1 day ago

TLE from 1 day ago
0 STARLINK-36281
1 67605U 26018S   26170.75612200  .00014161  00000-0  44003-3 0  9997
2 67605  97.2836 235.4829 0000292 175.3271 184.7975 15.33453027 22977
Epoch: 2026-06-19T18:08Z
TLE epoch observation values (Epoch: 2026-06-19T18:08:48.940Z)
Latitude
Longitude
55.29845°
Altitude
468.831 km
Speed
7.632 km/s
True Right ascension
15h 41m 55s
True Declination
0° 00' 00"
Sunlit
Object was in full shadow at epoch
Visualization orbit readout
Latitude
Unknown
Longitude
Unknown
Altitude
Unknown
Speed
Unknown
Apparent Right ascension
Unknown
Apparent Declination
Unknown
Sunlit
N/A
Visualization observer readout
Local Sidereal Time
07:16:19
Azimuth
Unknown
Elevation
Unknown
Doppler factor
Unknown
Orbital elements
Apogee altitude
462.662 km
Perigee altitude
462.262 km
Semi-major axis
6,840.599 km
Eccentricity
0.00003
Inclination
97.2836°
RAAN
235.4829°
Arg. of periapsis
175.3271°
True anomaly
184.79722°
Mean anomaly
184.7975°
Eccentric anomaly
184.79736°
Mean motion
3.83621 °/min
Orbital period
93.84 mins
BSTAR
0.00044003
Loading maneuver chart data...
Computing Atmospheric mass density...
Loading historical data...
Loading historical data...
Loading historical data...
Loading historical data...
Loading historical data...
Loading historical data...
Loading historical data...

Documentation

Showing up to 5 results
|